Showing default

IRIDIUM 124, 42810

Orbit data source: Space-Track

IRIDIUM 124, 42810 is a payload satellite owned by Iridium (US) in LEO that was launched on Sun, 25 Jun 2017 UTC via an FALCON 9 launch vehicle from the Air Force Western Test Range (AFWTR). Payload-class satellites include a variety of spacecraft equipped with specific instruments for various scientific and technological missions. These include communications satellites like Starlink; space stations such as the ISS; scientific satellites like the Hubble; Earth observation satellites from companies like Planet Labs, Umbra, and HawkEye 360; GPS; miniature CubeSats for education and research; and military/defense satellites.

Loading next visibility...
Identifier
42810, 2017-039H
Orbit
LEO
Country
Flag of USUS
Related business
Manufacturer
OATK SSG Gilbert
Mission
Operational Commercial Communications
Bus & Motor
ELITEBUS, Unknown motor
Mass
860 kg wet, 700 kg dry
Launch date (UTC)
2017-06-25 (9 years ago)
Launch vehicle
FALCON 9
Launch site
Air Force Western Test Range (AFWTR)
Object type
Payload
Rocket body
Debris
Shape & HBR
Trap Box + 2 Pan, 4.8 m
Radar Cross Section
10.154 m², Large (>1 m²)

Expand to show TLE details & history
Last TLE update: 20 hours ago

TLE from 20 hours ago
0 IRIDIUM 124
1 42810U 17039H   26262.20366951  .00000122  00000-0  30186-4 0  9992
2 42810  86.4439 251.0277 0002346  86.6306 273.5163 14.43280405488670
Epoch: 2026-09-19T04:53Z
TLE epoch observation values (Epoch: 2026-09-19T04:53:17.045Z)
Latitude
-0.00006°
Longitude
179.59111°
Altitude
750.643 km
Speed
7.479 km/s
True Right ascension
16h 44m 06s
True Declination
0° 00' 00"
Sunlit
Object was in daylight at epoch
Visualization orbit readout
Latitude
Unknown
Longitude
Unknown
Altitude
Unknown
Speed
Unknown
Apparent Right ascension
Unknown
Apparent Declination
Unknown
Sunlit
N/A
Visualization observer readout
Local Sidereal Time
17:53:14
Azimuth
Unknown
Elevation
Unknown
Doppler factor
Unknown
Orbital elements
Apogee altitude
746.302 km
Perigee altitude
742.96 km
Semi-major axis
7,122.768 km
Eccentricity
0.00023
Inclination
86.4439°
RAAN
251.0277°
Arg. of periapsis
86.6306°
True anomaly
273.48947°
Mean anomaly
273.5163°
Eccentric anomaly
273.50288°
Mean motion
3.61052 °/min
Orbital period
99.71 mins
BSTAR
0.000030186
Loading maneuver chart data...
Computing Atmospheric mass density...
Loading historical data...
Loading historical data...
Loading historical data...
Loading historical data...
Loading historical data...
Loading historical data...
Loading historical data...

Documentation

Showing up to 5 results
|